Location: Geroldsau
(48.7259°N, 8.2466°E)
Time: 02:01:34
(UTC+00:00)

Cosmos 1943 - Visible Passes

Search period start: 23 October 2021 00:00
Search period end: 02 November 2021 00:00
Orbit: 833 x 849 km, 71.0° (Epoch: 22 October)

Date Brightness Start Highest point End Pass type
(mag) Time Alt. Az. Time Alt. Az. Time Alt. Az.
26 Oct 5.4 05:25:36 10° N 05:29:27 18° NE 05:33:18 10° E visible
27 Oct 5.5 05:10:33 10° N 05:14:19 18° NE 05:18:04 10° E visible
28 Oct 5.5 04:55:30 10° N 04:59:10 17° NE 05:02:49 10° ENE visible
29 Oct 5.6 04:40:28 10° N 04:44:02 17° NE 04:47:36 10° ENE visible
30 Oct 5.6 04:25:26 10° N 04:28:53 16° NE 04:32:21 10° ENE visible
31 Oct 5.6 04:10:23 10° N 04:13:45 16° NE 04:17:05 10° ENE visible
01 Nov 5.6 03:55:21 10° N 03:58:36 15° NNE 04:01:50 10° ENE visible
01 Nov 3.9 05:38:23 10° NNW 05:43:57 57° ENE 05:49:28 10° SE visible
